AMAZONAS 3

Last updated on Wed Aug 26 2026 00:03:46 GMT+0000 (Coordinated Universal Time)

1 39078U 13006A 26237.53321015 -.00000285 00000+0 00000+0 0 9991 2 39078 0.0489 242.1175 0004676 298.1189 284.5411 1.00271813 45617
UTC large
Height (km)
Speed (km/s)
/
Latitude / Longitude
Inclination (degrees)
Orbital Period (minutes)
Azimuth
Elevation
Range (km)
Doppler Factor

Next 0 passes for location: London (51.5072 / 0.1276)

No passes found over London.
AMAZONAS 3